Wind_Speed
38 40 42 44 45 47 47 47 48 50 52 51 52 52 52 52 51 50 49 48 46 46 46 45 45 43 42 43 43 41 40 39 37 35 34 33 31 29 28 27 25 23 21 20 18 16 14 14 15 15 15 15 15 15 15 15 15 15 14 14 14 13 12
37 38 40 42 44 46 48 49 49 50 52 53 52 52 53 52 52 52 51 49 48 47 46 46 46 46 44 43 44 43 42 41 40 38 36 35 33 31 29 28 26 24 22 20 18 16 14 14 14 14 15 15 15 16 16 16 16 15 15 15 15 14 13
37 38 40 43 45 47 49 50 51 50 51 53 53 52 53 54 54 53 52 51 49 48 47 47 47 47 46 45 45 45 44 43 42 41 39 38 36 33 31 29 28 25 23 22 20 18 17 15 15 14 15 16 16 17 17 17 17 17 16 16 15 15 14
40 42 43 44 45 46 47 50 51 51 52 53 54 54 54 54 54 54 53 51 50 50 49 48 48 48 48 47 46 46 46 45 44 44 43 41 38 35 34 32 31 29 26 25 23 21 20 19 17 16 16 17 18 18 19 18 18 18 17 17 16 16 15
42 43 42 42 43 43 45 48 50 51 52 53 54 54 54 54 53 53 53 51 51 50 49 48 48 48 48 49 48 47 47 46 45 45 45 44 41 39 37 36 34 32 30 28 26 24 23 22 21 19 18 18 19 20 21 20 19 19 19 18 18 17 17
40 40 41 42 43 44 45 48 50 51 51 52 53 54 53 53 52 52 53 52 52 50 49 48 48 48 49 49 49 49 48 47 46 46 46 45 44 42 41 39 37 35 33 31 29 27 26 25 23 22 20 20 20 21 22 22 22 21 20 20 19 19 19
39 39 43 44 44 45 46 47 50 50 51 50 51 53 53 52 52 52 52 52 52 51 50 50 49 49 49 49 50 50 50 49 47 46 46 46 46 45 43 41 40 38 36 34 32 30 28 27 26 24 22 22 21 21 22 23 23 23 22 21 21 20 20
42 43 45 45 45 46 47 47 48 48 49 49 49 50 51 51 52 52 52 52 52 52 52 51 50 49 49 49 50 50 51 50 49 47 46 47 47 46 44 42 41 39 38 37 35 32 31 29 28 26 25 24 23 23 23 24 23 24 24 24 23 22 22
35 42 46 47 46 45 46 47 47 47 48 48 48 49 50 51 51 52 52 52 52 52 52 52 50 49 49 49 49 49 50 51 50 49 48 47 47 47 45 43 42 40 40 38 36 35 33 31 30 28 27 26 25 24 24 25 25 25 25 25 24 23 23
19 29 36 41 44 45 45 44 43 44 45 47 47 48 50 51 51 51 51 51 51 52 52 51 50 49 49 49 48 47 48 50 51 51 50 49 48 47 46 45 43 42 41 39 38 37 35 34 32 31 30 29 28 27 26 26 27 27 27 26 26 25 24
3 10 17 23 28 31 33 36 39 43 46 47 47 48 49 51 52 51 51 51 51 51 51 51 50 50 50 50 48 47 47 48 50 51 52 51 50 48 47 46 45 44 43 41 40 39 37 36 35 34 33 32 30 29 29 28 28 29 30 29 27 26 25
27 19 13 7 7 10 13 18 26 35 42 47 49 49 50 51 52 52 51 50 50 50 50 50 50 50 50 50 49 49 47 46 47 50 51 52 51 50 48 48 47 46 45 44 43 41 40 39 38 37 36 34 33 31 31 30 29 29 30 31 30 29 27
35 35 33 27 20 13 8 4 7 15 26 36 43 47 49 51 52 52 51 51 50 48 48 49 49 49 49 49 49 49 49 47 46 47 49 51 51 50 49 49 49 49 48 46 45 44 43 42 41 39 38 36 35 34 32 31 30 30 30 31 31 31 30
34 36 36 34 32 27 20 13 6 2 10 21 30 35 38 42 46 49 50 50 49 48 47 47 48 48 48 48 49 49 49 48 46 45 46 47 49 50 50 49 49 49 49 48 47 47 45 44 42 41 39 38 37 36 34 33 33 32 30 31 32 32 31
33 35 35 34 33 32 29 25 18 12 5 8 19 26 29 30 32 37 43 45 45 45 45 45 45 47 47 47 48 48 48 47 46 45 45 45 47 49 50 50 49 49 49 49 49 48 47 45 43 42 41 40 39 38 37 36 36 34 32 31 32 32 32
28 31 34 33 31 29 28 27 24 19 14 8 7 14 23 29 28 27 30 36 40 41 42 42 43 44 44 44 43 43 43 43 44 45 45 45 46 48 49 49 49 49 49 49 50 49 48 46 45 44 42 41 40 39 39 39 38 36 34 33 32 32 32
27 27 31 32 31 27 24 24 24 21 17 14 11 7 8 20 30 30 27 29 35 40 42 43 43 43 42 43 42 40 38 37 39 42 44 45 45 46 48 49 49 49 49 49 49 49 49 48 47 46 44 43 42 41 41 40 39 37 36 34 33 32 33
26 25 27 31 31 27 23 22 23 21 17 15 12 9 7 2 14 26 30 28 29 36 43 45 44 44 44 45 45 43 39 36 37 40 44 46 46 45 46 48 48 49 49 49 49 49 49 49 48 47 46 44 43 43 42 41 39 38 36 35 33 33 33
23 24 26 27 28 28 24 21 22 20 14 12 11 7 6 6 4 10 23 29 27 28 36 43 45 45 45 46 46 45 43 40 38 38 42 46 46 45 44 46 48 49 50 50 49 49 49 50 49 48 47 46 45 44 44 43 41 39 38 36 34 34 34
24 26 29 30 30 30 27 23 21 20 14 9 11 9 5 5 8 5 9 21 26 26 29 35 42 46 46 47 47 47 47 45 41 38 39 43 45 45 44 45 47 48 49 49 49 49 50 50 50 49 48 47 46 46 45 44 42 41 39 37 36 35 35
24 27 30 33 33 31 30 26 23 21 17 13 13 12 6 3 4 5 2 9 18 24 27 30 36 42 45 46 46 46 46 46 45 43 41 39 42 46 46 44 45 46 48 49 49 50 50 50 50 50 49 48 47 47 46 45 44 42 41 39 37 36 36
24 27 29 30 31 31 30 27 24 22 20 19 17 13 10 5 2 2 4 3 7 15 24 29 33 38 42 44 44 44 44 44 45 46 45 41 41 44 47 46 44 44 46 48 48 49 50 50 51 50 50 49 48 48 47 46 44 43 42 40 38 37 37
24 26 26 27 28 29 29 27 26 24 22 21 18 16 16 10 6 8 10 7 5 9 17 24 29 33 38 42 43 43 43 43 43 45 46 45 43 44 47 48 46 44 44 46 48 49 50 50 51 50 50 50 49 49 48 46 45 44 43 41 39 38 37
24 24 24 26 27 28 28 28 29 29 28 26 22 19 20 15 10 14 16 12 7 7 11 16 22 27 32 36 39 42 43 43 43 44 45 47 47 47 47 47 47 45 43 44 47 49 50 50 50 50 50 50 50 50 48 47 45 44 42 41 39 38 38
23 23 22 23 25 27 27 27 28 28 29 30 27 23 22 18 15 16 18 15 12 10 10 12 16 21 26 28 31 36 40 42 42 42 45 48 49 48 48 47 47 45 44 44 45 47 49 49 49 50 50 50 51 50 49 48 46 45 43 41 40 39 38
23 23 21 21 22 24 26 25 25 26 28 31 31 28 24 22 19 18 18 17 16 14 12 11 11 14 19 23 26 30 35 39 40 41 43 47 49 48 48 48 47 46 45 44 45 46 48 49 49 50 50 50 50 50 50 49 48 46 44 42 41 40 38
23 23 22 19 19 23 25 25 24 24 26 29 32 31 28 26 23 21 20 19 19 17 16 14 13 13 15 18 23 27 31 35 38 39 41 44 46 47 48 48 48 48 47 45 45 46 47 49 49 49 50 50 50 50 51 50 49 48 46 44 42 41 39
24 25 24 20 18 21 25 25 25 24 25 27 30 32 32 29 26 23 21 20 20 19 19 18 18 18 17 18 20 24 28 33 36 38 40 42 44 46 47 48 48 49 48 47 46 46 47 49 49 49 49 49 50 50 51 51 50 49 48 45 44 42 41
24 26 27 24 21 21 24 25 25 25 25 27 30 32 33 32 30 27 24 22 21 21 21 21 21 21 21 20 20 22 25 30 34 37 40 42 44 45 46 47 48 49 49 48 47 47 47 48 49 49 49 48 49 50 50 50 50 50 49 47 45 44 43
24 27 28 27 24 21 23 24 24 23 23 25 28 31 32 32 32 30 26 24 24 24 23 23 23 23 24 24 23 23 24 27 32 36 40 43 45 46 46 46 48 50 50 49 48 47 47 48 49 49 49 49 49 49 49 50 50 50 49 48 46 45 44
25 27 28 28 25 21 21 24 24 22 21 22 25 29 30 30 31 32 29 26 27 27 26 25 24 25 26 27 27 26 26 27 29 34 40 43 45 47 48 47 48 50 51 49 48 48 48 48 48 49 50 50 50 49 49 48 48 49 50 49 47 46 45
25 26 28 29 26 22 22 24 24 22 21 21 22 25 29 29 30 31 30 28 28 28 28 27 27 27 28 29 29 29 28 29 30 33 38 43 46 47 48 48 49 50 51 50 48 48 48 49 49 49 50 50 50 50 49 47 47 48 49 49 48 46 45
25 26 27 28 26 24 24 24 25 24 23 22 22 23 27 29 31 32 31 30 29 29 27 27 27 29 30 30 31 31 31 31 31 32 36 42 46 48 48 49 49 50 51 51 50 50 49 49 48 49 49 51 51 50 48 46 46 48 49 49 49 47 45
25 25 26 27 26 25 24 24 25 25 24 24 24 24 25 29 32 33 34 32 30 28 27 26 26 28 31 31 31 31 32 32 32 32 36 41 46 47 48 49 50 51 52 52 52 50 49 48 48 49 50 50 50 48 46 45 47 48 50 51 49 46 44
24 24 26 26 26 25 24 23 24 24 23 23 24 24 25 27 30 33 34 33 31 29 28 28 28 30 32 31 29 29 31 32 32 32 35 41 45 47 48 48 49 50 50 51 51 50 49 48 49 49 50 50 50 49 48 48 50 52 53 51 49 46 43
23 23 24 25 26 25 23 23 23 23 22 22 24 25 24 24 26 29 31 32 31 29 28 30 32 33 33 31 28 28 29 31 31 31 34 40 44 45 45 45 46 47 48 49 50 50 49 49 48 48 47 48 49 50 51 52 53 52 51 50 48 47 43
24 23 23 24 25 25 24 22 21 21 21 22 24 24 23 22 23 25 27 29 30 30 29 30 32 35 35 32 29 27 27 29 30 29 33 40 43 43 44 45 45 46 47 48 50 50 49 49 48 47 46 46 47 48 50 52 51 50 49 48 47 46 43
25 23 23 24 25 25 24 22 21 21 21 22 24 24 22 21 22 23 24 26 28 30 31 31 32 35 36 34 30 28 27 28 28 28 34 41 44 45 46 47 48 48 48 49 49 49 48 48 47 47 46 46 46 46 48 49 49 48 48 47 46 45 43
Wind_Direction
198 199 197 197 196 195 195 195 194 195 196 197 197 198 199 199 201 203 204 207 210 212 213 215 216 215 213 210 209 208 208 208 207 207 207 207 207 207 208 209 210 210 208 205 204 202 200 203 205 204 203 205 207 206 204 206 209 205 196 196 198 200 204
197 199 199 198 198 197 197 197 196 196 196 197 197 198 199 200 201 203 205 208 210 213 214 215 217 218 217 213 211 210 209 208 208 209 210 211 211 210 209 211 214 216 216 215 212 211 209 208 210 210 209 209 209 209 209 208 211 212 207 205 204 203 208
197 198 199 199 199 198 198 198 198 198 198 198 198 199 200 201 203 205 206 209 210 212 214 216 218 220 220 218 214 212 211 210 209 210 212 214 215 215 214 216 221 223 224 224 223 222 220 218 218 217 215 215 214 213 213 211 211 214 214 213 212 209 210
198 199 200 200 200 199 199 199 199 199 199 199 200 201 202 203 205 206 208 210 211 211 213 216 218 220 221 220 217 214 213 212 211 212 215 218 219 219 218 219 223 227 229 230 230 229 228 228 227 225 221 219 218 218 216 213 212 214 216 217 219 217 215
198 199 198 199 200 201 201 199 199 199 200 201 202 203 204 204 205 206 208 211 212 214 215 217 218 219 221 222 220 217 215 214 214 214 216 219 221 222 222 223 226 229 231 233 234 233 231 231 230 230 227 222 221 221 219 217 213 214 217 218 219 221 221
197 196 196 198 200 201 202 201 201 201 201 202 203 204 204 204 206 207 209 211 212 214 216 217 218 218 220 222 222 220 217 216 216 217 218 220 222 225 225 226 228 230 232 234 235 235 233 232 232 232 232 229 225 222 222 220 217 214 216 217 219 222 224
194 194 195 198 199 202 203 202 202 203 203 203 203 204 204 205 207 208 210 211 212 213 214 215 217 219 220 222 223 223 221 218 217 218 219 221 223 226 228 229 229 230 232 234 235 235 234 234 234 234 236 235 230 226 224 223 220 217 217 218 219 220 223
193 194 197 198 200 203 204 203 204 203 204 204 203 203 203 205 207 208 210 212 213 213 214 215 217 219 221 222 223 224 224 222 219 219 220 222 224 227 229 230 231 232 233 234 234 234 234 234 234 236 238 237 235 231 227 225 223 221 220 220 219 219 221
198 197 198 199 201 203 204 205 205 204 204 204 205 205 205 206 207 209 211 212 213 214 215 216 218 220 221 222 223 226 226 225 223 221 221 222 224 227 229 231 232 233 234 234 234 234 233 233 234 237 239 238 237 233 230 227 225 223 223 223 223 221 220
213 209 204 201 202 203 204 204 204 204 205 205 206 206 207 207 208 210 211 212 213 215 216 216 218 219 221 222 224 226 226 227 226 225 224 224 225 227 229 230 232 233 234 235 235 235 234 234 235 237 239 239 238 235 233 230 226 225 225 225 226 224 222
94 212 210 208 206 204 203 203 203 205 207 207 207 207 207 208 209 210 211 212 214 215 216 216 217 218 220 222 224 225 226 228 228 227 227 226 227 227 229 230 231 233 234 235 236 236 236 237 237 238 239 240 239 237 236 233 230 227 226 226 227 226 225
59 65 77 112 168 183 192 201 206 208 209 208 208 208 209 209 209 210 211 213 215 215 216 216 216 218 219 221 222 224 226 228 229 229 230 230 229 229 230 230 231 233 234 236 237 238 238 239 240 240 241 241 240 239 238 237 235 231 228 228 228 228 227
53 55 58 65 73 84 104 145 201 215 215 213 211 211 211 212 211 211 211 212 214 215 216 216 216 217 219 220 222 223 226 228 230 231 232 232 232 232 232 232 232 233 235 236 237 238 239 240 241 242 242 242 241 239 239 239 238 236 233 230 230 230 230
43 46 48 51 54 57 62 67 76 174 219 219 217 215 215 216 215 213 213 212 213 214 215 216 216 217 218 219 221 224 226 229 231 233 234 234 234 234 234 234 234 234 235 236 237 238 239 241 242 242 243 242 242 241 239 239 239 239 237 234 232 232 232
32 36 39 42 42 44 48 50 53 59 82 201 214 217 219 219 219 218 217 215 212 212 214 215 216 216 218 219 221 225 228 230 231 233 234 235 235 236 235 235 235 235 235 236 237 238 239 240 241 242 242 242 242 241 240 239 239 239 238 236 234 233 233
25 27 32 35 35 36 39 42 47 54 63 90 162 206 216 218 221 222 222 219 214 212 213 214 215 214 215 217 219 223 225 228 231 234 235 236 236 237 237 236 235 235 235 236 237 237 238 239 240 240 241 242 241 240 240 239 240 240 239 238 237 236 236
20 19 24 28 30 30 31 33 38 45 55 69 88 117 192 217 222 224 226 224 218 214 213 214 214 213 212 214 217 221 223 226 230 234 236 238 239 238 238 237 235 234 235 236 237 237 238 237 238 239 240 241 241 240 240 240 240 240 239 239 238 239 239
20 12 15 23 27 26 26 25 25 32 47 62 76 92 93 162 225 226 227 227 223 218 216 215 215 214 213 216 220 223 226 230 235 235 236 238 240 240 238 237 235 234 234 234 235 236 237 236 237 238 239 240 240 240 240 241 241 241 239 239 238 239 240
24 12 9 16 19 21 22 20 17 22 36 50 50 62 83 50 356 240 227 227 228 224 219 218 219 219 218 221 225 227 227 229 234 237 237 236 238 241 240 237 235 234 233 233 234 235 236 236 236 237 238 239 240 240 241 242 242 242 241 240 239 239 240
21 12 8 8 10 14 16 13 13 17 24 30 20 19 41 48 26 1 231 225 229 230 225 224 224 224 225 227 230 233 233 232 233 236 238 237 236 238 240 239 237 235 234 233 233 234 235 236 236 236 237 238 240 241 242 242 243 243 242 242 241 240 240
17 11 7 3 2 5 8 9 8 8 8 4 2 5 7 33 46 23 294 226 227 230 231 232 230 228 230 232 233 235 235 236 237 238 238 239 236 236 239 241 240 237 234 232 232 233 234 235 236 236 237 238 239 240 242 243 244 244 243 243 243 242 242
16 11 7 2 359 358 360 3 3 360 355 350 351 354 341 307 230 312 317 261 222 226 230 235 234 232 234 237 237 236 236 237 239 240 239 239 237 235 237 240 241 239 236 233 232 233 234 235 236 236 237 238 238 239 241 243 244 244 244 244 244 243 243
10 9 4 358 356 354 352 353 354 352 349 344 341 340 335 318 261 276 300 288 236 222 227 235 237 236 238 241 240 240 238 237 239 241 240 238 237 236 236 239 241 240 237 234 232 232 233 234 235 236 237 238 238 238 240 242 243 243 244 244 244 244 244
358 360 358 354 352 350 346 345 346 345 343 341 336 330 332 328 290 281 290 284 263 237 234 246 250 246 245 246 244 243 242 241 242 243 242 239 238 236 236 237 239 240 239 236 233 232 233 234 235 236 236 237 238 239 240 242 243 243 244 244 244 244 244
347 346 348 348 348 348 345 339 337 336 334 334 331 327 327 327 308 290 284 279 270 256 247 259 266 262 259 257 254 249 246 245 245 245 243 241 239 237 235 236 238 239 239 238 236 234 233 233 234 236 236 237 238 239 240 242 243 243 244 244 244 243 243
343 338 338 339 341 344 344 338 332 328 327 329 330 327 325 322 313 299 289 281 271 261 259 266 271 271 272 273 269 260 253 249 247 246 244 241 239 237 236 237 238 238 238 238 236 234 233 233 234 235 236 237 237 238 239 240 242 243 244 245 244 244 243
339 336 336 338 340 341 341 339 336 330 325 326 327 326 324 320 312 303 294 283 272 267 270 271 265 264 269 274 275 271 266 259 253 249 246 242 239 237 237 237 238 238 238 237 235 233 232 232 233 235 236 237 237 237 238 239 240 242 244 245 245 245 243
336 335 336 337 341 345 344 340 337 331 323 320 321 323 322 319 313 306 297 285 276 276 276 271 265 264 264 265 269 270 271 268 261 253 247 243 239 236 236 237 238 238 238 237 235 233 232 232 232 234 235 236 237 237 238 239 240 241 243 245 246 246 244
332 331 333 335 336 342 345 342 338 332 324 318 317 320 321 318 314 308 297 287 285 285 279 270 267 267 263 260 262 265 267 268 265 257 249 243 239 237 237 237 237 237 236 235 234 232 232 231 231 232 234 236 236 237 237 238 239 240 242 244 245 246 246
329 327 328 331 332 337 341 342 340 336 329 320 316 318 320 319 315 308 298 291 291 290 282 273 269 267 262 258 258 260 261 264 264 260 252 245 240 237 236 236 237 236 235 234 233 231 231 231 230 230 232 234 236 237 237 237 238 239 242 244 245 245 246
325 324 325 326 328 332 336 339 340 339 335 326 319 316 317 318 316 309 300 294 292 291 286 280 275 271 265 260 258 259 260 262 262 259 254 247 241 237 236 234 234 233 232 232 231 229 230 230 230 230 231 233 235 236 237 236 237 238 241 243 244 245 245
321 321 322 323 326 328 331 335 337 337 337 334 326 318 315 315 314 309 301 294 292 293 291 285 280 277 271 265 262 262 264 265 262 257 253 247 242 239 237 234 231 230 230 229 229 229 230 230 230 230 231 232 234 235 236 236 236 238 240 242 243 244 245
318 318 318 321 323 323 325 330 334 336 337 337 334 325 315 311 310 308 302 295 290 292 293 289 284 281 277 271 266 264 267 269 264 256 250 245 240 237 234 231 229 228 228 227 228 229 229 229 230 230 231 232 233 234 235 236 236 238 240 241 242 243 244
313 314 314 316 318 318 319 325 333 337 337 337 338 332 320 311 308 306 303 296 290 287 288 288 286 282 278 274 270 267 266 269 266 257 248 242 238 233 231 228 226 225 227 228 229 229 229 229 230 231 232 233 233 234 234 235 236 238 240 242 243 243 243
305 308 309 312 313 313 313 318 327 334 335 337 341 339 326 313 307 305 302 297 290 285 282 282 283 281 277 274 273 271 268 267 266 258 247 240 236 234 231 228 226 225 227 230 232 233 235 235 235 236 235 234 233 233 234 235 237 239 242 244 246 246 244
297 300 304 307 308 308 307 309 319 330 334 337 343 342 331 318 308 302 299 296 290 285 282 281 280 279 278 276 275 276 273 268 265 260 249 240 234 228 223 221 221 223 225 228 231 234 237 240 241 242 239 236 235 235 236 238 241 242 243 245 248 249 249
289 293 299 302 303 304 304 304 313 325 334 341 345 343 334 324 313 303 296 293 290 285 282 283 282 280 279 277 277 279 277 270 267 263 251 238 229 221 217 218 221 225 228 230 231 231 233 236 240 242 242 241 240 239 240 242 243 243 244 246 248 250 252
285 288 294 297 299 302 303 301 308 321 332 342 347 345 339 329 319 308 298 292 289 285 282 282 282 280 279 278 278 281 280 275 271 263 248 234 225 222 222 223 225 228 229 230 230 231 232 233 235 237 240 243 244 243 243 243 242 242 244 246 248 250 252
Height
1479 1481 1484 1486 1488 1491 1493 1496 1499 1501 1505 1507 1509 1512 1516 1519 1521 1524 1526 1529 1532 1535 1538 1541 1544 1547 1549 1551 1553 1556 1559 1561 1563 1565 1566 1568 1570 1571 1573 1574 1575 1576 1578 1579 1580 1581 1583 1584 1585 1586 1587 1588 1589 1590 1591 1592 1593 1593 1593 1594 1595 1596 1596
1476 1479 1482 1485 1486 1488 1490 1493 1496 1498 1501 1504 1506 1510 1512 1515 1517 1520 1523 1525 1528 1532 1535 1538 1541 1543 1546 1549 1551 1554 1556 1559 1561 1563 1565 1566 1568 1570 1572 1573 1574 1575 1577 1578 1579 1581 1582 1583 1584 1585 1586 1587 1588 1589 1590 1591 1591 1592 1592 1593 1594 1594 1595
1471 1475 1477 1480 1482 1484 1487 1489 1492 1495 1497 1500 1503 1506 1508 1511 1513 1515 1519 1522 1525 1528 1531 1535 1538 1540 1543 1546 1549 1551 1553 1556 1559 1560 1562 1564 1566 1568 1570 1572 1573 1574 1575 1577 1578 1580 1581 1582 1583 1584 1585 1586 1587 1587 1588 1589 1590 1591 1591 1592 1592 1593 1594
1466 1468 1471 1476 1479 1482 1485 1486 1489 1492 1494 1497 1499 1502 1504 1507 1510 1513 1516 1519 1522 1525 1527 1530 1534 1537 1540 1543 1546 1548 1551 1553 1556 1558 1560 1562 1564 1566 1568 1570 1571 1572 1574 1575 1577 1578 1579 1581 1582 1582 1583 1584 1585 1586 1587 1588 1589 1590 1590 1591 1591 1592 1593
1460 1463 1468 1474 1477 1481 1483 1484 1487 1489 1491 1495 1497 1500 1502 1505 1509 1511 1514 1517 1519 1522 1524 1527 1531 1534 1537 1540 1542 1545 1547 1550 1553 1555 1558 1559 1562 1564 1566 1567 1569 1570 1572 1573 1575 1577 1578 1579 1580 1581 1582 1582 1583 1584 1585 1586 1587 1588 1589 1590 1590 1591 1591
1456 1460 1465 1469 1473 1477 1479 1481 1484 1486 1489 1492 1494 1498 1501 1504 1507 1509 1511 1514 1517 1520 1523 1526 1529 1531 1534 1536 1539 1542 1544 1547 1550 1553 1555 1558 1560 1561 1563 1565 1566 1568 1570 1571 1573 1574 1576 1577 1578 1579 1579 1580 1581 1582 1583 1584 1585 1586 1587 1588 1589 1590 1590
1452 1457 1460 1464 1468 1472 1475 1478 1481 1484 1487 1490 1493 1496 1499 1501 1504 1506 1509 1511 1513 1517 1520 1523 1525 1528 1530 1533 1536 1538 1540 1543 1546 1549 1552 1555 1557 1559 1560 1562 1564 1566 1568 1569 1571 1572 1574 1575 1576 1577 1578 1578 1579 1580 1581 1582 1583 1585 1586 1587 1588 1588 1589
1448 1451 1455 1459 1464 1467 1471 1475 1478 1482 1485 1489 1491 1494 1496 1499 1501 1504 1506 1508 1511 1514 1516 1519 1521 1524 1527 1530 1533 1536 1538 1540 1543 1545 1548 1551 1554 1556 1557 1559 1561 1563 1565 1567 1568 1570 1571 1573 1574 1575 1576 1577 1578 1579 1579 1580 1581 1583 1584 1585 1586 1587 1588
1449 1450 1452 1455 1460 1465 1468 1472 1475 1480 1483 1486 1489 1491 1494 1497 1498 1501 1503 1505 1508 1510 1512 1515 1519 1522 1525 1528 1530 1533 1536 1539 1540 1542 1545 1547 1549 1552 1554 1556 1558 1561 1562 1564 1566 1568 1569 1570 1572 1573 1574 1575 1575 1576 1577 1578 1579 1581 1582 1583 1584 1585 1586
1455 1456 1456 1457 1460 1463 1466 1470 1474 1479 1482 1484 1487 1489 1491 1493 1496 1498 1500 1503 1505 1506 1509 1513 1516 1520 1523 1525 1527 1530 1534 1536 1539 1540 1542 1543 1545 1547 1550 1553 1555 1558 1559 1561 1563 1565 1566 1568 1570 1571 1571 1572 1573 1574 1575 1576 1577 1578 1579 1581 1582 1583 1584
1457 1460 1462 1464 1465 1467 1470 1472 1474 1476 1478 1481 1484 1486 1488 1490 1493 1495 1497 1500 1501 1504 1507 1511 1514 1517 1520 1522 1525 1527 1530 1533 1536 1538 1539 1540 1542 1544 1547 1550 1552 1555 1556 1558 1560 1562 1564 1565 1567 1568 1569 1569 1570 1571 1572 1573 1574 1576 1577 1578 1579 1581 1582
1460 1461 1463 1466 1469 1471 1473 1475 1476 1477 1477 1478 1480 1483 1485 1487 1489 1492 1495 1497 1499 1502 1505 1508 1511 1514 1517 1520 1523 1525 1527 1529 1532 1534 1536 1538 1540 1542 1544 1547 1549 1552 1553 1555 1557 1559 1561 1562 1564 1565 1566 1567 1568 1569 1570 1571 1572 1573 1574 1576 1577 1578 1580
1465 1465 1466 1467 1468 1471 1473 1475 1477 1478 1479 1480 1481 1482 1484 1484 1486 1489 1491 1494 1497 1500 1502 1505 1508 1511 1514 1517 1520 1522 1524 1526 1528 1530 1533 1536 1538 1540 1542 1544 1546 1548 1550 1552 1554 1555 1557 1559 1560 1562 1563 1564 1565 1566 1567 1569 1570 1571 1572 1573 1575 1576 1577
1469 1468 1468 1469 1470 1471 1473 1474 1477 1478 1480 1481 1483 1485 1486 1487 1488 1488 1489 1491 1494 1497 1500 1502 1506 1508 1512 1515 1517 1519 1521 1524 1526 1528 1531 1534 1536 1538 1540 1541 1543 1545 1547 1549 1551 1552 1554 1555 1557 1559 1560 1561 1562 1563 1565 1566 1567 1568 1569 1571 1572 1573 1575
1475 1473 1472 1472 1473 1474 1474 1476 1477 1478 1479 1480 1482 1484 1486 1488 1490 1491 1492 1493 1494 1496 1498 1500 1503 1506 1509 1512 1514 1517 1520 1523 1525 1527 1529 1531 1533 1535 1537 1538 1540 1542 1544 1546 1547 1549 1551 1552 1554 1556 1557 1558 1559 1561 1562 1563 1564 1565 1566 1568 1570 1571 1572
1482 1480 1477 1476 1476 1477 1477 1477 1477 1477 1478 1479 1480 1482 1484 1486 1489 1491 1493 1494 1494 1495 1497 1499 1501 1504 1507 1511 1514 1518 1521 1523 1525 1526 1527 1528 1529 1531 1533 1535 1537 1539 1541 1543 1544 1546 1548 1549 1551 1552 1553 1555 1556 1558 1559 1559 1560 1562 1563 1565 1567 1568 1570
1487 1485 1482 1479 1478 1478 1479 1478 1477 1477 1477 1478 1479 1480 1482 1485 1487 1488 1490 1492 1493 1493 1494 1495 1497 1500 1504 1507 1510 1514 1518 1522 1525 1525 1525 1525 1526 1527 1529 1531 1534 1535 1537 1539 1541 1543 1545 1546 1548 1549 1550 1552 1553 1554 1555 1556 1557 1559 1561 1562 1564 1565 1567
1491 1490 1486 1483 1482 1481 1480 1479 1478 1477 1477 1478 1478 1480 1481 1483 1484 1484 1485 1489 1491 1492 1492 1493 1494 1496 1499 1501 1503 1506 1509 1514 1518 1520 1521 1522 1522 1523 1525 1527 1529 1531 1533 1535 1537 1539 1541 1543 1544 1545 1547 1549 1550 1551 1552 1553 1554 1556 1558 1559 1561 1562 1564
1494 1494 1491 1488 1487 1485 1483 1482 1480 1479 1478 1478 1479 1480 1480 1482 1483 1483 1483 1485 1489 1492 1493 1492 1493 1495 1497 1499 1501 1502 1502 1502 1503 1507 1511 1514 1517 1519 1521 1523 1524 1526 1528 1530 1533 1536 1538 1539 1541 1542 1544 1545 1546 1547 1548 1550 1551 1553 1555 1556 1558 1560 1561
1494 1494 1491 1488 1486 1484 1483 1481 1480 1479 1478 1479 1480 1480 1480 1481 1484 1485 1485 1485 1487 1491 1493 1494 1493 1494 1495 1496 1497 1499 1499 1499 1498 1499 1502 1506 1511 1514 1516 1518 1519 1521 1523 1526 1529 1532 1533 1535 1537 1539 1540 1542 1543 1544 1545 1546 1548 1549 1551 1553 1555 1557 1558
1494 1492 1490 1488 1485 1484 1482 1480 1479 1478 1478 1479 1480 1480 1480 1481 1482 1484 1485 1485 1486 1487 1490 1493 1494 1494 1494 1494 1495 1496 1499 1500 1500 1499 1499 1501 1505 1509 1511 1513 1514 1516 1519 1522 1525 1527 1529 1531 1533 1535 1536 1538 1540 1541 1542 1543 1544 1546 1548 1550 1552 1554 1556
1493 1491 1491 1491 1489 1486 1484 1483 1481 1480 1479 1479 1478 1478 1479 1479 1479 1480 1482 1483 1483 1483 1485 1488 1490 1491 1492 1492 1493 1494 1495 1496 1497 1498 1498 1499 1500 1503 1506 1508 1510 1512 1515 1518 1520 1523 1525 1528 1529 1531 1533 1535 1537 1538 1538 1539 1541 1543 1544 1546 1548 1551 1553
1494 1492 1493 1493 1492 1489 1486 1484 1483 1482 1481 1479 1478 1477 1477 1477 1477 1477 1478 1480 1480 1480 1481 1482 1483 1486 1488 1489 1490 1491 1491 1492 1492 1493 1495 1497 1497 1497 1500 1503 1506 1509 1511 1513 1516 1518 1521 1523 1526 1528 1530 1531 1533 1534 1535 1536 1538 1539 1541 1543 1546 1548 1550
1496 1495 1495 1495 1494 1491 1488 1484 1482 1480 1479 1478 1477 1477 1476 1477 1477 1476 1476 1478 1477 1477 1478 1478 1479 1481 1484 1485 1486 1487 1488 1489 1489 1490 1492 1493 1493 1494 1496 1499 1502 1505 1507 1509 1511 1513 1516 1519 1522 1524 1526 1527 1529 1530 1532 1533 1534 1536 1538 1540 1543 1545 1547
1497 1496 1496 1496 1495 1492 1488 1484 1481 1478 1476 1475 1476 1476 1475 1476 1477 1476 1475 1475 1475 1474 1474 1475 1477 1478 1480 1481 1482 1483 1484 1485 1485 1486 1487 1488 1489 1491 1493 1496 1498 1501 1503 1505 1507 1509 1512 1515 1518 1520 1522 1523 1525 1527 1528 1530 1531 1533 1535 1537 1540 1542 1544
1498 1496 1494 1494 1493 1491 1488 1484 1480 1477 1475 1474 1474 1474 1474 1474 1475 1474 1473 1471 1471 1471 1471 1473 1474 1475 1476 1477 1478 1479 1479 1480 1480 1481 1482 1483 1486 1488 1491 1493 1495 1497 1499 1501 1503 1506 1509 1511 1514 1515 1518 1520 1521 1523 1525 1526 1528 1530 1532 1534 1537 1539 1541
1496 1495 1493 1491 1490 1488 1486 1483 1479 1476 1475 1473 1472 1471 1472 1472 1471 1470 1469 1468 1467 1468 1469 1470 1470 1471 1472 1473 1473 1474 1473 1473 1475 1476 1477 1479 1482 1485 1488 1490 1492 1493 1495 1497 1499 1502 1504 1507 1509 1511 1514 1516 1518 1519 1521 1522 1525 1527 1529 1531 1533 1536 1538
1493 1492 1491 1489 1487 1486 1484 1480 1476 1474 1473 1472 1471 1469 1469 1469 1468 1467 1466 1465 1464 1465 1466 1466 1467 1467 1468 1468 1469 1469 1469 1469 1470 1471 1473 1476 1478 1481 1484 1486 1488 1490 1491 1494 1496 1498 1500 1502 1505 1507 1510 1512 1514 1515 1517 1519 1521 1523 1525 1528 1530 1532 1535
1489 1489 1487 1486 1485 1484 1482 1479 1476 1473 1471 1470 1469 1467 1466 1465 1464 1464 1463 1463 1462 1463 1463 1463 1464 1464 1464 1464 1465 1465 1466 1466 1467 1468 1470 1472 1474 1476 1479 1482 1484 1486 1488 1490 1492 1494 1496 1499 1501 1504 1506 1508 1509 1511 1513 1515 1518 1520 1522 1524 1527 1529 1530
1486 1485 1484 1483 1482 1481 1479 1479 1477 1474 1472 1470 1468 1466 1465 1463 1461 1460 1460 1460 1460 1460 1459 1460 1461 1461 1461 1461 1461 1461 1462 1463 1464 1465 1466 1468 1470 1472 1474 1477 1480 1481 1483 1486 1488 1490 1492 1495 1497 1500 1501 1503 1505 1506 1509 1511 1514 1516 1518 1520 1522 1524 1525
1482 1482 1481 1481 1480 1478 1477 1476 1475 1474 1472 1470 1469 1466 1464 1462 1460 1458 1457 1457 1457 1457 1456 1456 1457 1457 1457 1457 1457 1457 1458 1458 1459 1461 1462 1464 1466 1468 1469 1472 1475 1477 1479 1482 1484 1486 1488 1491 1493 1495 1497 1499 1501 1502 1504 1507 1510 1512 1513 1515 1517 1519 1521
1480 1480 1479 1478 1477 1476 1474 1473 1473 1471 1469 1469 1468 1466 1463 1460 1458 1456 1454 1454 1453 1453 1453 1453 1452 1452 1452 1452 1452 1453 1454 1454 1455 1456 1458 1459 1461 1462 1464 1467 1469 1472 1475 1477 1480 1482 1484 1486 1489 1491 1493 1495 1496 1498 1500 1503 1506 1507 1508 1510 1512 1515 1517
1478 1477 1476 1475 1475 1474 1472 1470 1469 1466 1463 1463 1464 1463 1460 1458 1455 1454 1452 1451 1450 1450 1450 1449 1448 1447 1447 1447 1448 1449 1449 1450 1450 1451 1453 1455 1456 1458 1459 1462 1464 1467 1470 1472 1475 1477 1479 1482 1485 1487 1489 1490 1492 1495 1498 1500 1502 1503 1504 1506 1508 1511 1513
1477 1476 1475 1473 1472 1472 1470 1468 1465 1461 1460 1459 1459 1458 1456 1454 1452 1451 1450 1448 1447 1446 1445 1444 1444 1443 1443 1443 1444 1444 1445 1445 1445 1446 1448 1450 1451 1453 1455 1457 1460 1462 1464 1467 1470 1473 1476 1479 1481 1483 1485 1486 1489 1492 1495 1497 1498 1498 1498 1500 1502 1505 1508
1475 1475 1474 1473 1471 1470 1469 1467 1464 1461 1459 1457 1455 1454 1452 1450 1449 1448 1446 1445 1444 1442 1440 1439 1439 1439 1438 1439 1439 1439 1440 1440 1441 1441 1443 1445 1447 1449 1452 1453 1455 1458 1461 1464 1467 1469 1472 1475 1476 1477 1480 1482 1485 1488 1490 1490 1490 1491 1493 1495 1498 1501 1504
1474 1473 1473 1472 1471 1469 1468 1467 1464 1461 1459 1456 1453 1452 1449 1447 1447 1446 1444 1442 1440 1438 1436 1435 1434 1433 1434 1435 1435 1435 1435 1436 1436 1437 1438 1440 1442 1445 1448 1450 1453 1456 1459 1462 1464 1466 1468 1470 1471 1473 1476 1478 1479 1481 1483 1483 1484 1487 1491 1494 1496 1499 1502
1471 1471 1470 1470 1469 1467 1466 1464 1462 1460 1457 1454 1451 1449 1447 1445 1444 1444 1442 1440 1438 1435 1433 1432 1430 1429 1429 1430 1431 1431 1431 1431 1432 1433 1435 1436 1438 1440 1443 1447 1451 1454 1455 1457 1458 1460 1463 1466 1467 1470 1472 1473 1474 1476 1478 1479 1482 1486 1489 1491 1494 1496 1498
1467 1467 1467 1467 1466 1465 1463 1461 1459 1458 1455 1452 1450 1448 1444 1442 1442 1441 1439 1437 1435 1433 1431 1429 1428 1427 1426 1426 1427 1427 1427 1427 1428 1429 1431 1432 1433 1436 1439 1443 1445 1446 1448 1450 1452 1455 1457 1460 1463 1465 1467 1468 1469 1471 1473 1475 1478 1482 1484 1487 1490 1492 1494